EW6887 Weather Reports


Display with metric or nautical units.
time (UTC)temp
F
wind
direction
speed
MPH
gust
MPH
rain 1hr
in
rain 24hr
in
rain mn
in
humidity
%
barometer
mb
20260506164539 60 247 0.0 0.0 0.00 0.00 0.00 83 1003.2
20260506163114 61 197 0.0 0.0 0.00 0.00 0.00 81 1003.3
20260506161557 62 169 0.0 0.0 0.00 0.00 0.00 78 1002.7
20260506160038 63 209 0.0 0.0 0.00 0.00 0.00 72 1002.6
20260506154536 64 219 0.0 0.0 0.00 0.00 0.00 71 1003.0
20260506153020 65 176 0.0 0.0 0.00 0.00 0.00 67 1003.1
20260506151511 65 176 0.0 0.0 0.00 0.00 0.00 65 1003.3
20260506150059 66 209 0.0 0.0 0.00 0.00 0.00 61 1003.5
20260506144548 70 164 0.0 0.0 0.00 0.00 0.00 52 1003.6
20260506143042 71 331 0.0 0.0 0.00 0.00 0.00 47 1003.5
20260506141533 71 14 0.0 0.0 0.00 0.00 0.00 48 1003.5
20260506140123 71 69 0.0 0.0 0.00 0.00 0.00 47 1003.6
20260506134515 71 55 0.0 0.0 0.00 0.00 0.00 47 1003.7
20260506133006 71 13 0.0 0.0 0.00 0.00 0.00 46 1004.0
20260506131602 72 5 0.0 0.0 0.00 0.00 0.00 44 1004.2
20260506130053 73 79 0.0 0.0 0.00 0.00 0.00 44 1004.4
20260506124550 72 9 0.0 0.0 0.00 0.00 0.00 46 1004.6
20260506123048 72 124 0.0 0.0 0.00 0.00 0.00 47 1004.7
20260506121542 71 24 0.0 0.0 0.00 0.00 0.00 48 1004.7
20260506120005 71 25 0.0 0.0 0.00 0.00 0.00 48 1004.8
20260506114621 72 40 0.0 0.0 0.00 0.00 0.00 47 1005.0
20260506113053 71 19 0.0 0.0 0.00 0.00 0.00 49 1005.2
20260506111553 70 65 0.0 0.0 0.00 0.00 0.00 51 1005.2
20260506110050 69 83 0.0 0.0 0.00 0.00 0.00 51 1005.4
20260506104545 68 71 0.0 0.0 0.00 0.00 0.00 52 1005.6
20260506103036 68 102 0.0 0.0 0.00 0.00 0.00 53 1005.6
20260506101600 67 109 0.0 0.0 0.00 0.00 0.00 55 1005.7
20260506100053 67 52 0.0 0.0 0.00 0.00 0.00 55 1005.8
20260506094547 67 65 0.0 0.0 0.00 0.00 0.00 57 1005.8
20260506093101 65 107 0.0 0.0 0.00 0.00 0.00 59 1005.7
20260506091533 64 62 0.0 0.0 0.00 0.00 0.00 65 1005.8
20260506090025 64 360 0.0 0.0 0.00 0.00 0.00 62 1005.7
20260506084517 64 5 0.0 0.0 0.00 0.00 0.00 64 1005.6
20260506083008 63 57 0.0 0.0 0.00 0.00 0.00 67 1005.7
20260506081507 62 65 0.0 0.0 0.00 0.00 0.00 67 1005.7
20260506080111 62 360 0.0 0.0 0.00 0.00 0.00 67 1005.7
20260506073046 60 61 0.0 0.0 0.00 0.00 0.00 75 1005.7
20260506071539 59 70 0.0 0.0 0.00 0.00 0.00 78 1005.6
20260506061508 57 101 0.0 0.0 0.00 0.00 0.00 87 1005.5
20260506044521 55 10 0.0 0.0 0.00 0.00 0.00 91 1005.0
20260506043114 55 11 0.0 0.0 0.00 0.00 0.00 90 1004.9
20260506041505 55 59 0.0 0.0 0.00 0.00 0.00 90 1004.7
20260506034550 55 82 0.0 0.0 0.00 0.00 0.00 88 1004.6
20260506033043 56 38 0.0 0.0 0.00 0.00 0.00 85 1004.6
20260506031533 56 57 0.0 0.0 0.00 0.00 0.00 81 1004.4
20260506030025 56 207 0.0 0.0 0.00 0.00 0.00 79 1004.3
20260506024549 56 217 0.0 0.0 0.00 0.00 0.00 78 1003.9
20260506023052 56 355 0.0 0.0 0.00 0.00 0.00 77 1003.8
20260506021529 57 38 0.0 0.0 0.00 0.00 0.00 74 1004.0
20260506020035 58 250 0.0 0.0 0.00 0.00 0.00 70 1003.6
20260506014510 59 46 0.0 0.0 0.00 0.00 0.00 66 1004.0
20260506013005 59 78 0.0 0.0 0.00 0.00 0.00 65 1004.0
20260506011559 59 338 0.0 0.0 0.00 0.00 0.00 64 1003.9
20260506010022 59 338 0.0 0.0 0.00 0.00 0.00 64 1003.9
20260506004521 59 324 0.0 0.0 0.00 0.00 0.00 63 1003.8
20260506003002 59 342 0.0 0.0 0.00 0.00 0.00 63 1003.9
20260506001655 60 336 0.0 0.0 0.00 0.00 0.00 62 1003.9
20260506000109 60 284 0.0 0.0 0.00 0.00 0.00 61 1004.0
20260505234543 60 329 0.0 0.0 0.00 0.00 0.00 60 1004.1
20260505233003 61 350 0.0 0.0 0.00 0.00 0.00 59 1004.2
20260505231558 61 5 0.0 0.0 0.00 0.00 0.00 58 1004.3
20260505230051 61 339 0.0 0.0 0.00 0.00 0.00 57 1004.7
20260505224546 61 342 0.0 0.0 0.00 0.00 0.00 57 1003.3
20260505223037 62 309 0.0 0.0 0.00 0.00 0.00 57 1003.3
20260505221523 63 344 0.0 0.0 0.00 0.00 0.00 56 1003.4
20260505220103 63 340 0.0 0.0 0.00 0.00 0.00 55 1003.4
20260505214546 63 309 0.0 0.0 0.00 0.00 0.00 54 1003.6
20260505213001 64 13 0.0 0.0 0.00 0.00 0.00 53 1003.5
20260505211658 64 307 0.0 0.0 0.00 0.00 0.00 52 1003.4
20260505210046 65 301 0.0 0.0 0.00 0.00 0.00 52 1003.6
20260505204553 65 5 0.0 0.0 0.00 0.00 0.00 51 1003.7
20260505203030 65 340 0.0 0.0 0.00 0.00 0.00 50 1003.6
20260505201521 65 319 0.0 0.0 0.00 0.00 0.00 46 1003.5
20260505200008 66 186 0.0 0.0 0.00 0.00 0.00 43 1003.4
20260505194600 67 186 0.0 0.0 0.00 0.00 0.00 41 1003.4
20260505193050 67 186 0.0 0.0 0.00 0.00 0.00 39 1003.2
20260505191543 68 53 0.0 0.0 0.00 0.00 0.00 38 1003.1
20260505190030 70 303 0.0 0.0 0.00 0.00 0.00 34 1002.8
20260505184529 70 316 0.0 0.0 0.00 0.00 0.00 33 1002.7
20260505183016 71 299 0.0 0.0 0.00 0.00 0.00 34 1002.7
20260505181507 71 302 0.0 0.0 0.00 0.00 0.00 33 1002.7
20260505180104 71 315 0.0 0.0 0.00 0.00 0.00 33 1002.8
20260505174549 72 325 0.0 0.0 0.00 0.00 0.00 32 1002.9
20260505173040 73 309 0.0 0.0 0.00 0.00 0.00 32 1003.1
20260505171538 73 336 0.0 0.0 0.00 0.00 0.00 33 1003.0
20260505170121 74 343 0.0 0.0 0.00 0.00 0.00 35 1003.0